Weather in Toltunovo

Russia / Kostroma Oblast     58°26′28″N   42°18′31″E
temp.,
°C
wind,
m/s
gust,
m/s
humid.,
%
clouds,
%
prec.,
mm/h
press.,
hPa
HPBL,
m
24 january, mon
mon2400:00−20sw11100100 0.0 10349
03:00−20wsw11100100 0.0 103522
06:00−19ssw11100100 0.0 103523
09:00−19ssw23100100 0.1 103656
12:00−11sw3895100 0.0 1034224
15:00−9ssw3109480 0.1 1033342
18:00−12ssw3119672 0.0 1032255
21:00−13ssw3129681 0.0 1030255
25 january, tue
tue2500:00−13ssw3139669 0.0 1029303
03:00−12ssw4149326 0.0 1027345
06:00−12ssw4149081 0.0 1025336
09:00−13ssw4159011 0.0 1022333
12:00−9ssw415845 0.0 1020425
15:00−8ssw414855 0.0 1018529
18:00−11s4139299 0.0 1016372
21:00−12s31193100 0.0 1015342
26 january, wed
wed2600:00−13s3895100 0.1 1015240
03:00−13sse249699 0.4 1014145
06:00−13sse1296100 0.6 1014108
09:00−12se1195100 1.1 101477
12:00−10ese0191100 0.1 1015195
15:00−9nne029389 0.3 1015209
18:00−14nnw009987 0.1 10169
21:00−17ne1110091 0.1 10169
27 january, thu
thu2700:00−18ne00100100 0.1 10169
03:00−20ne00100100 0.1 10179
06:00−21ese00100100 0.1 10169
09:00−22se00100100 0.1 10169
12:00−13s1195100 0.0 1016127
15:00−12sse1197100 0.1 101523
18:00−15sse2499100 0.0 101574
21:00−17sse2598100 0.0 101596
28 january, fri
fri2800:00−17sse2698100 0.0 1014129
03:00−17sse2898100 0.0 1014183
06:00−15sse31096100 0.0 1013252
09:00−14sse31196100 0.1 1013308
12:00−11sse41092100 0.0 1012396
15:00−10se41093100 0.1 1012437
18:00−12se41194100 0.0 1012361
21:00−10se31194100 0.1 1011393